This is the latest recevied weather packets stored in our database for station/object KC2BRB-1. If no packets are shown the sender has not sent any weather packets the latest 10 day(s).
| Time | Temp. | Humidity | Pressure | Rain* | Wind** | Luminosity | Snow |
|---|---|---|---|---|---|---|---|
| 1777408678 | 31.67° C | 50% | 1015.5 hPa | 0 mm | - | - | - |
| 1777408572 | 31.67° C | 50% | 1015.5 hPa | 0 mm | - | - | - |
| 1777408378 | 31.67° C | 50% | 1015.5 hPa | 0 mm | - | - | - |
| 1777408079 | 31.67° C | 52% | 1015.6 hPa | 0 mm | - | - | - |
| 1777407778 | 31.67° C | 52% | 1015.6 hPa | 0 mm | - | - | - |
| 1777407478 | 31.11° C | 51% | 1015.6 hPa | 0 mm | - | - | - |
| 1777407178 | 31.11° C | 51% | 1015.6 hPa | 0 mm | - | - | - |
| 1777406879 | 31.67° C | 50% | 1015.8 hPa | 0 mm | - | - | - |
| 1777406661 | 31.67° C | 50% | 1015.8 hPa | 0 mm | - | - | - |
| 1777406578 | 31.67° C | 50% | 1015.8 hPa | 0 mm | - | - | - |
| 1777406279 | 31.11° C | 51% | 1016.2 hPa | 0 mm | - | - | - |
| 1777405978 | 31.11° C | 51% | 1016.2 hPa | 0 mm | - | - | - |
| 1777405827 | 31.67° C | 51% | 1016.2 hPa | 0 mm | - | - | - |
| 1777405679 | 31.67° C | 51% | 1016.2 hPa | 0 mm | - | - | - |
| 1777405378 | 31.67° C | 51% | 1016.2 hPa | 0 mm | - | - | - |
| 1777405294 | 31.67° C | 51% | 1016.5 hPa | 0 mm | - | - | - |
| 1777405078 | 31.67° C | 51% | 1016.5 hPa | 0 mm | - | - | - |
| 1777404778 | 31.67° C | 51% | 1016.5 hPa | 0 mm | - | - | - |
| 1777404634 | 31.67° C | 56% | 1016.7 hPa | 0 mm | - | - | - |
| 1777404479 | 31.67° C | 56% | 1016.7 hPa | 0 mm | - | - | - |
| 1777404332 | 31.67° C | 56% | 1016.7 hPa | 0 mm | - | - | - |
| 1777404179 | 31.67° C | 56% | 1016.7 hPa | 0 mm | - | - | - |
| 1777403878 | 31.11° C | 53% | 1016.7 hPa | 0 mm | - | - | - |
| 1777403765 | 31.11° C | 53% | 1016.7 hPa | 0 mm | - | - | - |
| 1777403579 | 31.11° C | 53% | 1016.7 hPa | 0 mm | - | - | - |
* Rain latest hour (hover to see other rain measurements)
** Current wind speed in m/s (hover to see current wind gust speed)